Location: The Saddle
(36.8333°N, 80.3417°W)
Time: 08:35:59
(UTC-04:00)

Vanguard 2 Rocket - Pass Details

Date: 30 January 2023
Orbit: 555 x 3316 km, 32.9° (Epoch: 27 March)

Event Time Altitude Azimuth Distance (km) Brightness Sun altitude
Rises 18:00:59 0° 263° (W) 3,456 12.0 -3.9°
Reaches altitude 10° 18:03:57 10° 244° (WSW) 2,831 11.3 -4.5°
Maximum altitude 18:08:37 19° 202° (SSW) 2,738 9.9 -5.4°
Drops below altitude 10° 18:15:03 10° 163° (SSE) 4,086 10.2 -6.6°
Sets 18:20:43 0° 148° (SSE) 5,678 10.8 -7.7°
